Location: Rowland
(34.5359°N, 79.2929°W)
Time: 17:49:26
(UTC+00:00)

A-11 Canister half - Pass Details

Date: 04 October 2022
Orbit: 1515 x 1684 km, 47.2° (Epoch: 06 December)

Event Time Altitude Azimuth Distance (km) Brightness Sun altitude
Exits shadow 07:39:33 41° 113° (ESE) 2,082 9.7 -43.4°
Drops below altitude 10° 07:44:57 10° 120° (ESE) 3,675 11.2 -42.4°
Sets 07:48:00 0° 122° (ESE) 4,664 11.8 -41.9°
